Tracking 29892 objects as of 21-Nov-2024
HD Live streaming from Space Station
objects crossing your sky now

CZ-6A DEB

Track CZ-6A DEB now!
10-day predictions


NORAD ID: 54300
Int'l Code: 2022-151AT
Perigee: 826.2 km
Apogee: 910.9 km
Inclination: 98.9 °
Period: 102.2 minutes
Semi major axis: 7239 km
RCS: Unknown
Launch date: November 11, 2022
Source: People's Republic of China (PRC)
Launch site: Taiyaun Space Center, China (TSC)

Note: This is SATELLITE DEBRIS
Your satellite tracking list
Your tracking list is empty




NASA's NSSDC Master Catalog

Two Line Element Set (TLE):
1 54300U 22151AT  24325.48556849  .00001832  00000-0  10584-2 0  9992
2 54300  98.9013 330.7715 0058486 130.2099 230.4210 14.09395623103496
Source of the keplerian elements: AFSPC